Weather Roundup
Issued by NWS

Home | Current Version | Previous Version | Text Only | Print | Product List | Glossary On
Versions: 1 2 3 4 5 6 7 8 9 10 11 12 13 14 15 16 17 18 19 20 21 22 23 24 25 26 27 28 29 30 31 32 33 34 35 36 37 38 39 40 41 42 43 44 45 46 47 48 49 50
560
NZUS93 KARX 171310
HRRWXR

CURRENT HOURLY OBSERVATIONS ACROSS
MUCH OF THE UPPER MISSISSIPPI VALLEY
NATIONAL WEATHER SERVICE LA CROSSE WI
800 AM CDT FRI AUG 17 2018


...SOUTHEAST MINNESOTA...


CITY           SKY/WX    TMP DP  RH WIND       PRES   REMARKS
ROCHESTER      FOG       67  67 100 N5        30.05R VSB 1/4
ROCHESTER/MAYO PTSUNNY   66  66 100 CALM      30.05R
WINONA         CLOUDY    68  68 100 CALM      30.02S
AUSTIN         FAIR      66  64  94 CALM      30.04S FOG
ALBERT LEA     FAIR      66  66 100 N5        30.05R
DODGE CENTER   FAIR      66  64  94 CALM      30.05R FOG
PRESTON        FOG       65  64  96 CALM      30.05R VSB 1/4
OWATONNA       FAIR      66  64  94 CALM      30.05R
FARIBAULT      FAIR      66  64  94 CALM      30.05R
$$

...ELSEWHERE IN MINNESOTA...


CITY           SKY/WX    TMP DP  RH WIND       PRES   REMARKS
MINNEAPOLIS    FAIR      71  64  78 N7        30.05R
INTNL FALLS    FAIR      64  62  93 N5        30.11S FOG
DULUTH         FAIR      64  59  83 N6        30.07R
RED WING       FOG       66  66 100 CALM      30.02R VSB<1/4
REDWOOD FALLS  SUNNY     66  64  93 NW5       30.08R
MANKATO        FAIR      65  62  90 NW7       30.07R
WORTHINGTON    SUNNY     67  65  93 NW7       30.11R
FAIRMONT       SUNNY     67  65  93 NW7       30.07R
$$

...SOUTHWEST WISCONSIN...


CITY           SKY/WX    TMP DP  RH WIND       PRES   REMARKS
LA CROSSE      CLOUDY    69  67  93 N5        30.01S
PRAIRIE DU CHI CLOUDY    70  68  93 CALM      30.01R
BOSCOBEL       CLOUDY    71  69  93 CALM      30.00R
LONE ROCK      LGT RAIN  70  70 100 W3        29.99R FOG
PLATTEVILLE    CLOUDY    69  69 100 N6        30.00S
FORT MC COY    FAIR      61  61 100 CALM      30.03R
CAMP DOUGLAS   PTSUNNY   68  68 100 NW3       30.01S
MAUSTON-NEW LI CLOUDY    69  69  99 CALM      30.00F FOG
VIROQUA        PTSUNNY   67  67 100 CALM      30.03S
WIS DELLS      LGT RAIN  68  67  95 CALM      30.01R
$$

...ELSEWHERE IN WISCONSIN...


CITY           SKY/WX    TMP DP  RH WIND       PRES   REMARKS
MILWAUKEE      CLOUDY    73  69  87 W5        29.96R
MADISON        RAIN      67  66  97 NE3       29.99R FOG
GREEN BAY      FAIR      70  66  87 N10       29.99R
EAU CLAIRE     FAIR      67  65  93 CALM      30.02R
BLACK RVR FLS  FAIR      65  65 100 CALM      30.01F FOG
MEDFORD        FAIR      67  65  96 E5        30.03S
WAUSAU         FAIR      69  65  86 CALM      30.02S
WIS RAPIDS     FAIR      73  67  81 N6        30.02S
MARSHFIELD     PTSUNNY   70  67  90 NE8       30.03R
RICE LAKE      FAIR      65  64  94 N5        30.06R
$$

...NORTHEAST IOWA...


CITY           SKY/WX    TMP DP  RH WIND       PRES   REMARKS
WATERLOO       CLOUDY    66  66 100 N6        30.01R FOG
DUBUQUE        LGT RAIN  69  67  93 NE10      29.99R FOG
DECORAH        CLOUDY    66  66 100 CALM      30.02R
MASON CITY     FOG       67  67 100 N3        30.06S VSB 1/2
CHARLES CITY   FAIR      66  64  94 N6        30.04R
OELWEIN        CLOUDY    68  68 100 N6G12     30.03R
$$

...ELSEWHERE IN IOWA...


CITY           SKY/WX    TMP DP  RH WIND       PRES   REMARKS
DES MOINES     MOSUNNY   68  66  93 N9        30.02R
IOWA CITY      CLOUDY    70  68  93 NW9       29.99R
FORT DODGE     SUNNY     67  66  97 N3        30.07R
MARSHALLTOWN   CLOUDY    68  68 100 N12       30.02R
CEDAR RAPIDS   CLOUDY    69  68  96 NW9       29.98R FOG
$$

...NORTHERN ILLINOIS...


CITY           SKY/WX    TMP DP  RH WIND       PRES   REMARKS
CHICAGO-OHARE  CLOUDY    70  67  90 NW3       29.96R FOG
CHICAGO-MIDWAY CLOUDY    71  68  90 CALM      29.95S
MOLINE         CLOUDY    70  68  93 NW5       29.96R
ROCKFORD       CLOUDY    67  65  93 N3        29.99R
PEORIA         CLOUDY    70  69  97 SW7       29.96S
$$

NOTE: "FAIR" INDICATES FEW OR NO CLOUDS BELOW 12,000 FEET WITH NO
SIGNIFICANT WEATHER AND/OR OBSTRUCTIONS TO VISIBILITY. WIND
SPEEDS ARE IN MILES-PER-HOUR.




USA.gov is the U.S. government's official web portal to all federal, state and local government web resources and services.